Location: Liberty
(32.6612°N, 88.7589°W)
Time: 21:54:14
(UTC+00:00)

Envisat - Visible Passes

Search period start: 30 March 2023 00:00
Search period end: 09 April 2023 00:00
Orbit: 763 x 765 km, 98.2° (Epoch: 30 March)

Date Brightness Start Highest point End Pass type
(mag) Time Alt. Az. Time Alt. Az. Time Alt. Az.
30 Mar 2.9 09:50:22 10° NNE 09:55:27 87° ESE 09:57:25 39° S visible
31 Mar 4.3 09:13:41 10° NNE 09:18:19 35° E 09:20:01 28° SE visible
31 Mar 4.3 10:53:15 10° NNW 10:57:02 22° WNW 11:00:12 12° WSW visible
01 Apr 5.5 08:38:20 10° ENE 08:41:00 14° E 08:42:37 12° ESE visible
01 Apr 3.2 10:15:18 10° N 10:20:12 51° WNW 10:22:49 26° SW visible
02 Apr 3.3 09:38:07 10° NNE 09:43:11 66° E 09:45:25 33° S visible
03 Apr 4.8 09:01:45 10° NE 09:05:59 26° E 09:08:01 20° SE visible
03 Apr 3.9 10:40:34 10° NNW 10:44:51 28° WNW 10:48:12 14° WSW visible
04 Apr 5.8 08:28:09 10° E 08:28:36 10° E 08:29:03 10° E visible
04 Apr 2.9 10:02:55 10° N 10:07:57 68° WNW 10:10:48 26° SSW visible
05 Apr 3.8 09:25:58 10° NNE 09:30:53 48° E 09:33:23 26° SSE visible
05 Apr 4.6 11:06:24 10° NNW 11:09:24 16° WNW 11:12:25 10° WSW visible
06 Apr 5.2 08:49:57 10° NE 08:53:37 20° E 08:55:58 15° SE visible
06 Apr 3.6 10:28:00 10° N 10:32:38 37° WNW 10:36:09 16° SW visible
07 Apr 2.9 09:50:35 10° NNE 09:55:41 90° E 09:58:44 25° SSW visible
08 Apr 4.3 09:13:53 10° NNE 09:18:32 36° E 09:21:19 21° SSE visible
08 Apr 4.3 10:53:30 10° NNW 10:57:14 21° WNW 11:00:58 10° WSW visible
